Preview of NWS' New Version of Forecast
This preview is not operational and should not be used for support decisions.

Regional Weather Roundup (RWR)

Issued by National Weather Service (NWS)

                            
000
ASUS42 KTBW 211316
RWRFL 
FLORIDA REGIONAL WEATHER ROUNDUP
NATIONAL WEATHER SERVICE TAMPA BAY RUSKIN FL
900 AM EDT TUE MAY 21 2019

NOTE: "FAIR" INDICATES FEW OR NO CLOUDS BELOW 12,000 FEET WITH NO
SIGNIFICANT WEATHER AND/OR OBSTRUCTIONS TO VISIBILITY.

FLZ001>010-012>015-112-114-115-211400-
PANHANDLE FLORIDA
  
CITY           SKY/WX    TMP DP  RH WIND       PRES   REMARKS
PENSACOLA      FAIR      80  73  79 SE8       29.94R                  
PENSACOLA NAS  PTSUNNY   80  73  79 S10       29.94R                  
MILTON NAS     FAIR      72  72 100 SE6       29.95                   
CRESTVIEW      CLOUDY    72  70  93 CALM      29.97R FOG              
DUKE FIELD     CLOUDY    73  73 100 CALM      29.95S FOG              
VALPARAISO     FAIR      76  72  86 E5        29.95R                  
MARY ESTHER    FAIR      79  69  70 SE6       29.94R                  
PANAMA CITY    FAIR      73  72  96 CALM      29.96R                  
TYNDALL AFB    FAIR      76  74  96 E5        29.96S                  
APALACHICOLA   FAIR      79  69  71 NE5       29.97R                  

STATION/POSITION SKY/WX   TEMP    WIND        PRES    WAVE   SWELL
                          AIR SEA DIR/SP/G            HT/PER HT/PER
                          (F)     (DEG/KT/KT) (MB)    (FT/S) (FT/S)
30.1N   87.6W                                   N/A     2/ 5
29.2N   88.2W                     160/  8/ 10 1013.8R   2/ 4   2/ 4
PANAMA CITY BEAC           77 80   90/  5/  5 1014.8R
TOWER C          NOT AVBL

$$
FLZ011-016>038-118-127-128-134-139-239-211400-
NORTH FLORIDA
  
CITY           SKY/WX    TMP DP  RH WIND       PRES   REMARKS
MARIANNA       FAIR      74  72  93 CALM      29.96R                  
TALLAHASSEE    FAIR      74  68  81 SE5       29.98R                  
PERRY          FAIR      79  68  68 CALM      29.99R                  
LIVE OAK       SUNNY     77  64  65 SW3       29.98R                  
CROSS CITY     FAIR      77  67  71 CALM      29.98R                  
GAINESVILLE    PTSUNNY   82  71  69 SW6       30.01S                  
WILLISTON      FAIR      76  70  84 SW3       29.99R                  
PALATKA        FAIR     N/A N/A N/A SW9       29.98S                  
MAYPORT NAS    FAIR      79  71  76 SW9       29.97S                  
JACKSONVILLE   FAIR      80  70  71 SW9       29.96S                  
JAX NAS        FAIR      79  69  71 S8        29.98S                  
JAX CECIL      SUNNY     81  72  74 S5        29.98R                  
FERNANDINA BEA FAIR      80  72  76 SW12      29.97S                  
ST AUGUSTINE   FAIR      78  72  81 SW9       29.99S                  
PALM COAST     SUNNY     77  72  83 S7        30.00R                  

STATION/POSITION SKY/WX   TEMP    WIND        PRES    WAVE   SWELL
                          AIR SEA DIR/SP/G            HT/PER HT/PER
                          (F)     (DEG/KT/KT) (MB)    (FT/S) (FT/S)
SHELL POINT      NOT AVBL
KEATON BEACH               78      60/  4/  5 1015.2R
CEDAR KEY                  80     190/  8/  9 1014.8R
FERNANDINA                 82 81  210/  5/ 10 1015.6R
30.7N   81.3W                 79                N/A     3/ 4
MAYPORT                    78 81  240/ 10/ 11 1015.2R
31.4N   80.9W              77 77  210/ 12/ 14 1014.8R   3/ 4   2/ 6
ST AUGUSTINE               77 80  200/  8/  9 1015.7R

$$
FLZ040-043>046-052-053-057-058-063-144-211400-
INTERIOR CENTRAL FLORIDA
  
CITY           SKY/WX    TMP DP  RH WIND       PRES   REMARKS
OCALA          FAIR      78  71  79 S6        29.99S                  
LEESBURG       FAIR      78  71  79 S6        30.00R                  
SANFORD        FAIR      79  71  76 S7        29.99R                  
ORLANDO EXEC   FAIR      79  71  76 S6        29.99R                  
ORLANDO INTL   FAIR      78  71  79 S6        29.99R                  
KISSIMMEE      FAIR      79  72  79 VRB5      30.01R                  
WINTER HAVEN   FAIR      80  71  74 S7        30.00R                  
LAKELAND       SUNNY     77  72  83 SE6       30.00R                  
BARTOW         MOSUNNY   77  72  83 CALM      29.99R                  
SEBRING        FAIR      77  71  82 CALM      29.99R                  
OKEECHOBEE     FAIR      79  70  73 SE5       29.98R                  

$$
FLZ041-047-054-059-064-141-147-211400-
EAST CENTRAL FLORIDA
  
CITY           SKY/WX    TMP DP  RH WIND       PRES   REMARKS
ORMOND BEACH   SUNNY     77  73  88 S5        30.00R                  
DAYTONA BEACH  FAIR      78  72  81 S6        30.00R                  
DELAND         FAIR      79  70  73 S8        29.99S                  
NEW SMYRNA BEA SUNNY     79  70  73 SW7       30.01R                  
JFK SPACE CTR  FAIR      79  72  78 SW5       29.99R                  
TITUSVILLE     SUNNY     81  72  74 VRB3      30.00R                  
CAPE CANAVERAL PTSUNNY   81  57  44 SW6       29.99R                  
PATRICK AFB    FAIR      81  71  71 SW3       29.99R                  
MELBOURNE      FAIR      81  69  67 SE5       29.99R                  
VERO BEACH     FAIR      80  69  69 SW3       29.99R                  
FT PIERCE      FAIR      80  69  69 CALM      29.98R                  
STUART         SUNNY     81  68  65 SE5       29.99R                  

STATION/POSITION SKY/WX   TEMP    WIND        PRES    WAVE   SWELL
                          AIR SEA DIR/SP/G            HT/PER HT/PER
                          (F)     (DEG/KT/KT) (MB)    (FT/S) (FT/S)
28.5N   80.2W                     200/  4/  4 1016.3
28.9N   78.5W              78 78   80/  2/  4 1016.6R   2/ 7   2/ 7
TRIDENT PIER               79 82  170/  4/  5 1017.0R
28.4N   80.5W                 79                N/A     2/ 4
27.5N   80.2W                 80                N/A     2/ 4

$$
FLZ050-056-061-142-242-148-248-149-249-151-251-155-255-
160-260-211400-
WEST CENTRAL FLORIDA
  
CITY           SKY/WX    TMP DP  RH WIND       PRES   REMARKS
CRYSTAL RIVER  FAIR      79  70  73 SE3       29.98S                  
INVERNESS      FAIR      79  75  89 CALM      29.98F                  
BROOKSVILLE    FAIR      79  71  76 S7        29.99R                  
CLEARWATER AIR FAIR      79  70  73 SE8       29.98R                  
ST PETE CLEARW FAIR      80  71  74 SE7       29.98R                  
TAMPA INTL     FAIR      80  70  71 SE5       29.99R                  
TAMPA EXEC     FAIR      77  72  83 CALM      29.99S                  
PLANT CITY     FAIR      81  72  74 SE6       30.01S                  
MACDILL AFB    FAIR      79  71  75 S6        29.98R                  
PETER O KNIGHT CLOUDY    79  73  83 SE3       29.99R                  
ST PETERSBURG  FAIR      77  72  84 S12       29.96R                  
SARASOTA       FAIR      80  70  71 SE7       29.96R                  
VENICE         FAIR      81  73  78 SE7       29.97R                  

STATION/POSITION SKY/WX   TEMP    WIND        PRES    WAVE   SWELL
                          AIR SEA DIR/SP/G            HT/PER HT/PER
                          (F)     (DEG/KT/KT) (MB)    (FT/S) (FT/S)
27.3N   84.2W                 78                N/A     1/ 6
CLEARWATER BEACH           79 84  120/  5/  7 1015.1R
MIDDLE TAMPA BAY           78     170/  7/  9 1015.1R
VENICE                     75 82   70/  4/  6 1014.2R

$$
FLZ066-069-070-075>078-162-262-165-265-211400-
SOUTHWEST FLORIDA AND KEYS
  
CITY           SKY/WX    TMP DP  RH WIND       PRES   REMARKS
PUNTA GORDA    FAIR      79  71  76 SE8       29.99R                  
FT MYERS       FAIR      78  72  81 SE7       29.97R                  
SOUTHWEST INTL FAIR      79  71  76 SE6       29.97R                  
NAPLES         FAIR      79  72  79 E8        29.96R                  
MARCO ISLAND   CLOUDY    81  73  76 E7        29.98R                  
IMMOKALEE      FAIR      81  73  78 E5        29.96R                  
MARATHON       FAIR      87  71  58 VRB5      29.95R                  
KEY WEST NAS   FAIR      85  69  58 SE3       29.96R                  
KEY WEST INTL  FAIR      82  70  66 E5        29.96R                  

STATION/POSITION SKY/WX   TEMP    WIND        PRES    WAVE   SWELL
                          AIR SEA DIR/SP/G            HT/PER HT/PER
                          (F)     (DEG/KT/KT) (MB)    (FT/S) (FT/S)
NAPLES                     81 84              1014.7R
DRY TORTUGAS               81     120/  3/  3 1014.5R
SAND KEY                   81                 1014.4R
SOMBRERO KEY               81                 1013.7R

$$
FLZ067-068-071>074-168-172>174-211400-
SOUTHEAST FLORIDA 
  
CITY           SKY/WX    TMP DP  RH WIND       PRES   REMARKS
W PALM BEACH   FAIR      83  69  62 CALM      29.98R                  
BOCA RATON     MOSUNNY   86  70  58 SE6       29.97R                  
FT LAUDER-EXEC FAIR      82  68  62 SE6       29.97R                  
FT LAUDERDALE  PTSUNNY   82  69  64 SE6       29.96R                  
POMPANO BEACH  FAIR      83  68  60 S8        29.97R                  
PEMBROKE PINES FAIR      81  69  67 CALM      29.98R                  
OPA LOCKA      FAIR      83  69  62 SE6       29.97R                  
MIAMI          FAIR      83  70  64 SE7       29.97R                  
WEST KENDALL   PTSUNNY   83  70  64 SW5       29.97R                  
HOMESTEAD      CLOUDY    84  71  66 E7        29.95R                  

STATION/POSITION SKY/WX   TEMP    WIND        PRES    WAVE   SWELL
                          AIR SEA DIR/SP/G            HT/PER HT/PER
                          (F)     (DEG/KT/KT) (MB)    (FT/S) (FT/S)
PORT EVERGLADES            81     140/  5/  7 1014.7
VIRGINIA KEY               82 84   90/  5/  7 1014.1R
LAKE WORTH                 80 81              1016.1R
SETTLEMENT POINT           79      80/  5/  5 1015.6R

$$